Regional Weather Roundup
Issued by NWS

Home | Current Version | Previous Version | Text Only | Print | Product List | Glossary On
Versions: 1 2 3 4 5 6 7 8 9 10 11 12 13 14 15 16 17 18 19 20 21 22 23 24 25 26 27 28 29 30 31 32 33 34 35 36 37 38 39 40 41 42 43 44 45 46 47 48 49 50
063
ASUS43 KDTX 020610
RWRMI
MICHIGAN HOURLY REGIONAL WEATHER ROUNDUP
NATIONAL WEATHER SERVICE DETROIT/PONTIAC MI
200 AM EDT MON MAY 02 2016

NOTE: "FAIR" INDICATES FEW OR NO CLOUDS BELOW 12,000 FEET WITH NO
SIGNIFICANT WEATHER AND/OR OBSTRUCTION TO VISIBILITY.

MIZ047>049-052>055-059>063-066>070-074>076-081>083-020700-
SOUTHEAST LOWER MICHIGAN

CITY           SKY/WX    TMP DP  RH WIND       PRES   REMARKS
ADRIAN         RAIN      46  45  96 E10       29.95F FOG
6HR MIN TEMP:  46; 6HR MAX TEMP:  53;

ALMA           CLOUDY    43  39  86 NW3       30.06R
ANN ARBOR      RAIN      46  44  93 NE5       29.98R FOG
BAD AXE        CLOUDY    42  39  89 NE6       30.01R
CARO           CLOUDY    43  40  88 NE5       29.99S
DETROIT CITY   LGT RAIN  47  44  90 N3        29.99R FOG
6HR MIN TEMP:  47; 6HR MAX TEMP:  50; 6HR PCP:  0.01;

DETROIT        RAIN      48  46  93 N3        29.99R FOG
6HR MIN TEMP:  48; 6HR MAX TEMP:  51; 6HR PCP:  0.07;

FLINT          LGT RAIN  47  41  80 NE8       29.98F
6HR MIN TEMP:  47; 6HR MAX TEMP:  50; 6HR PCP:  0.01;

GROSSE ILE     RAIN      48  45  87 CALM      29.98R
HILLSDALE      LGT RAIN  46  46 100 NW10      29.97R
6HR MIN TEMP:  46; 6HR MAX TEMP:  50;

HOWELL         MIX PCPN  44  43  95 NW8       30.01R

CITY           SKY/WX    TMP DP  RH WIND       PRES   REMARKS
JACKSON        RAIN      44  50 100 NW10      30.00R
6HR MIN TEMP:  44; 6HR MAX TEMP:  50; 6HR PCP:  0.12;

LAMBERTVILLE   HVY RAIN  49  47  93 NE3       29.95F
6HR MIN TEMP:  49; 6HR MAX TEMP:  54;

LANSING        RAIN      43  41  93 N5        30.03R FOG
6HR MIN TEMP:  43; 6HR MAX TEMP:  47; 6HR PCP:  0.11;

LAPEER         CLOUDY    44  41  91 N6        29.98F
6HR MIN TEMP:  44; 6HR MAX TEMP:  46;

MASON          HVY RAIN  43  41  93 NW5       30.03R
MONROE         HVY RAIN  48  48  99 NE6       29.97F
6HR MIN TEMP:  48; 6HR MAX TEMP:  53; 6HR PCP:  0.26;

MT. CLEMENS    LGT RAIN  46  46 100 NE3       29.97R
6HR MIN TEMP:  46; 6HR MAX TEMP:  49;

PONTIAC        CLOUDY    45  43  93 NE6       29.98R FOG
6HR MIN TEMP:  45; 6HR MAX TEMP:  46;

PORT HOPE        N/A     41  38  89 NE13      30.00F
6HR MIN TEMP:  41; 6HR MAX TEMP:  43;

PORT HURON     CLOUDY    45  45 100 CALM      29.98R
TRI CITIES     CLOUDY    46  39  76 NE8       30.03R
6HR MIN TEMP:  44; 6HR MAX TEMP:  49;

MIDLAND        MOCLDY    43  36  78 N5        30.04R
6HR MIN TEMP:  43; 6HR MAX TEMP:  48;

TROY           MIX PCPN  47  44  90 NW3       30.02R
SAGINAW HB     CLOUDY    45  37  76 NE6       30.01R
$$
MIZ043>046-050>051-056>058-064>065-071>073-077>080-020700-
SOUTHWEST LOWER MICHIGAN

CITY           SKY/WX    TMP DP  RH WIND       PRES   REMARKS
BATTLE CREEK   CLOUDY    44  42  93 NE7       30.00R
6HR MIN TEMP:  44; 6HR MAX TEMP:  50; 6HR PCP:  0.12;

BENTON HARBOR  CLOUDY    46  43  89 NE7       29.98S
6HR MIN TEMP:  46; 6HR MAX TEMP:  53; 6HR PCP:  0.43;

BIG RAPIDS     CLOUDY    43  34  70 N3        30.06R
6HR MIN TEMP:  42; 6HR MAX TEMP:  51;

COLDWATER      CLOUDY    46  45  97 N8        29.98S
6HR MIN TEMP:  46; 6HR MAX TEMP:  51;

FREMONT        CLOUDY    45  35  67 NE3       30.05F
HOLLAND        LGT RAIN N/A N/A N/A NE6       30.02R
                                      6HR PCP:  0.34;

GRAND RAPIDS   RAIN      44  41  89 NE7       30.02F
6HR MIN TEMP:  44; 6HR MAX TEMP:  50; 6HR PCP:  0.17;

IONIA          HVY RAIN  42  40  95 NE6       30.02F
6HR MIN TEMP:  42; 6HR MAX TEMP:  47; 6HR PCP:  0.14;

KALAMAZOO      LGT RAIN  45  41  86 NE10      29.99F
6HR MIN TEMP:  45; 6HR MAX TEMP:  51; 6HR PCP:  0.42;

LUDINGTON      CLOUDY    41  40  95 CALM      30.07R
6HR MIN TEMP:  39; 6HR MAX TEMP:  51;

MARSHALL       DRIZZLE   44  42  94 NE3       29.99F
6HR MIN TEMP:  44; 6HR MAX TEMP:  50; 6HR PCP:  0.22;

MOUNT PLEASANT CLOUDY    44  36  74 N5        30.05R
6HR MIN TEMP:  43; 6HR MAX TEMP:  49;

MUSKEGON       MOCLDY    47  36  65 NE7       30.03F
6HR MIN TEMP:  47; 6HR MAX TEMP:  53; 6HR PCP: TRACE;

SOUTH HAVEN    CLOUDY    44  43  96 NE8       29.99F
$$
MIZ016>042-020700-
NORTHERN LOWER MICHIGAN

CITY           SKY/WX    TMP DP  RH WIND       PRES   REMARKS
ALPENA         PTCLDY    35  31  85 CALM      30.07S
6HR MIN TEMP:  35; 6HR MAX TEMP:  50;

BEAVER ISLAND  PTCLDY    39  34  81 CALM      30.07S
6HR MIN TEMP:  39; 6HR MAX TEMP:  51;

BELLAIRE       PTCLDY    36  34  92 CALM      30.08R
6HR MIN TEMP:  36; 6HR MAX TEMP:  56;

CADILLAC       MOCLDY    41  32  69 NE5       30.04S
CHARLEVOIX     MOCLDY    40  35  81 CALM      30.10S
FRANKFORT      CLEAR     44  35  72 NE3       30.07S
GAYLORD        CLEAR     39  31  72 CALM      30.05F
6HR MIN TEMP:  36; 6HR MAX TEMP:  52;

GRAYLING       CLEAR     34  32  93 CALM      30.07S
HARBOR SPRINGS PTCLDY    43  32  66 CALM      30.07S
HOUGHTON LAKE  CLEAR     39  31  72 N5        30.05S
6HR MIN TEMP:  38; 6HR MAX TEMP:  51;

MANISTEE       PTCLDY    46  34  61 NE3       30.07S
OSCODA         CLEAR     38  34  85 N3        30.04F
6HR MIN TEMP:  37; 6HR MAX TEMP:  47;

PELLSTON       PTCLDY    34  31  88 CALM      30.07F
6HR MIN TEMP:  34; 6HR MAX TEMP:  55;

ROGERS CITY    CLEAR     35  31  87 CALM      30.08F
TRAVERSE CITY  CLEAR     38  35  89 CALM      30.06S
6HR MIN TEMP:  38; 6HR MAX TEMP:  50;

$$
MIZ007>008-015-020700-
EASTERN UPPER MICHIGAN

CITY           SKY/WX    TMP DP  RH WIND       PRES   REMARKS
KINROSS          N/A     45  36  70 N3        30.06F
6HR MIN TEMP:  45; 6HR MAX TEMP:  54;

MACKINAC ISLAN CLOUDY    46  33  62 S6        30.06S
6HR MIN TEMP:  41; 6HR MAX TEMP:  54;

NEWBERRY       MOCLDY    42  33  72 NW7       30.07S
6HR MIN TEMP:  42; 6HR MAX TEMP:  56;

S. S. MARIE    CLOUDY    51  32  48 CALM      30.06F
6HR MIN TEMP:  51; 6HR MAX TEMP:  56;

MUNISING         N/A     32  30  92 S3        30.11F
6HR MIN TEMP:  32; 6HR MAX TEMP:  43;

$$
MIZ004>006-011>014-085-020700-
CENTRAL UPPER MICHIGAN

CITY           SKY/WX    TMP DP  RH WIND       PRES   REMARKS
MANISTIQUE     CLEAR     38  33  82 N7        30.08S WCI  33
6HR MIN TEMP:  38; 6HR MAX TEMP:  51;

ESCANABA       CLEAR     41  32  70 N6        30.10F
6HR MIN TEMP:  39; 6HR MAX TEMP:  55;

MENOMINEE      CLEAR     43  30  61 N6        30.10S
6HR MIN TEMP:  43; 6HR MAX TEMP:  54;

SAWYER-GWINN   CLEAR     34  30  85 NW3       30.10F
6HR MIN TEMP:  33; 6HR MAX TEMP:  45;

$$
MIZ001>003-009>011-084-020700-
WESTERN UPPER MICHIGAN

CITY           SKY/WX    TMP DP  RH WIND       PRES   REMARKS
IRON MOUNTAIN  CLEAR     35  28  75 NW3       30.10F
6HR MIN TEMP:  35; 6HR MAX TEMP:  56;

HOUGHTON       CLEAR     34  30  85 CALM      30.12F
6HR MIN TEMP:  33; 6HR MAX TEMP:  49;

COPPER HARBOR    N/A     35  32  88 W5        30.13S WCI  31
6HR MIN TEMP:  35; 6HR MAX TEMP:  47;

IRONWOOD         N/A     34  32  93 CALM      30.10F
6HR MIN TEMP:  32; 6HR MAX TEMP:  46;

$$

ABBREVIATIONS USED IN REMARKS
   TC - TEMPERATURE IN CELSIUS
  WCI - WIND CHILL INDEX
   HX - HEAT INDEX
  VSB - VISIBILITY





USA.gov is the U.S. government's official web portal to all federal, state and local government web resources and services.